Hickory, NC

1:31 PM EDT on September 20, 2017 (GMT -0400)
Hickory Regional

Weather History for KHKY - November, 2011

Change the Weather History Date:

Thursday, November 3, 2011

  Actual Average Record
Temperature  
Mean Temperature 48 °F -  
Max Temperature 63 °F 67 °F 83 °F (1974)
Min Temperature 33 °F 44 °F 23 °F (1954)
Degree Days  
Heating Degree Days 18    
Moisture  
Dew Point 42 °F    
Average Humidity 81    
Maximum Humidity 100    
Minimum Humidity 46    
Precipitation  
Precipitation 0.44 in - - ()
Sea Level Pressure  
Sea Level Pressure 30.04 in    
Wind  
Wind Speed 3 mph (NE)    
Max Wind Speed 14 mph    
Max Gust Speed 20 mph    
Visibility 6 miles    
Events Rain    
Averages and records for this station are not official NWS values.
T = Trace of Precipitation, MM = Missing Value Source: NWS Daily Summary

Daily Weather History Graph

Daily Weather History Graph

Search for Another Location

Airport or City:

Trip Planner

Search our weather history database for the weather conditions in past years. The results will help you decide how hot, cold, wet, or windy it might be!

Date:

Astronomy

Nov. 03, 2011 Rise Set
Actual Time 7:49 AM EDT 6:28 PM EDT
Civil Twilight 7:22 AM EDT 6:54 PM EDT
Nautical Twilight 6:52 AM EDT 7:25 PM EDT
Astronomical Twilight 6:22 AM EDT 7:55 PM EDT
Moon 2:39 PM EDT (11/3) 1:13 AM EDT (11/3)
Length of Visible Light 11h 32m
Length of Day
10h 39m
First Quarter, 60% of the Moon is Illuminated
Nov 3
First Quarter
Nov 10
Full
Nov 18
Last Quarter
Nov 25
New
Dec 2
First Quarter

Hourly Weather History & Observations

Time (EDT) Temp. Dew Point Humidity Pressure Visibility Wind Dir Wind Speed Gust Speed Precip Events Conditions
12:53 AM 42.1 °F 39.0 °F 89% 30.24 in 10.0 mi Calm Calm - N/A   Clear
1:53 AM 41.0 °F 37.9 °F 89% 30.23 in 9.0 mi Calm Calm - N/A   Clear
2:53 AM 41.0 °F 37.9 °F 89% 30.21 in 10.0 mi Calm Calm - N/A   Clear
3:53 AM 39.9 °F 37.0 °F 89% 30.19 in 10.0 mi Calm Calm - N/A   Clear
4:53 AM 37.0 °F 35.1 °F 93% 30.18 in 8.0 mi Calm Calm - N/A   Clear
5:53 AM 37.4 °F 35.6 °F 93% 30.20 in 9.0 mi Calm Calm - N/A   Clear
6:53 AM 36.0 °F 34.0 °F 93% 30.17 in 7.0 mi Calm Calm - N/A   Clear
7:11 AM 35.6 °F 33.8 °F 93% 30.19 in 2.0 mi Calm Calm - N/A   Partly Cloudy
7:21 AM 35.6 °F 33.8 °F 93% 30.18 in 1.0 mi Calm Calm - N/A   Mist
7:37 AM 33.8 °F 33.8 °F 100% 30.18 in 0.8 mi Calm Calm - N/A   Mist
7:41 AM 33.8 °F 33.8 °F 100% 30.18 in 1.2 mi Calm Calm - N/A   Scattered Clouds
7:47 AM 35.6 °F 33.8 °F 93% 30.18 in 3.0 mi Calm Calm - N/A   Partly Cloudy
7:53 AM 35.1 °F 33.1 °F 92% 30.17 in 3.0 mi Calm Calm - N/A   Partly Cloudy
8:53 AM 37.9 °F 37.0 °F 97% 30.16 in 4.0 mi Calm Calm - N/A   Clear
9:53 AM 46.0 °F 39.9 °F 79% 30.15 in 10.0 mi Calm Calm - N/A   Clear
10:53 AM 54.0 °F 39.9 °F 59% 30.14 in 10.0 mi SSW 9.2 mph - N/A   Clear
11:53 AM 57.0 °F 39.9 °F 53% 30.11 in 10.0 mi South 4.6 mph - N/A   Clear
12:53 PM 60.1 °F 39.9 °F 47% 30.07 in 10.0 mi South 13.8 mph 17.3 mph N/A   Clear
1:53 PM 62.1 °F 41.0 °F 46% 30.03 in 10.0 mi SSW 11.5 mph 19.6 mph N/A   Clear
2:53 PM 62.1 °F 42.1 °F 48% 29.97 in 10.0 mi South 10.4 mph 19.6 mph N/A   Clear
3:53 PM 62.1 °F 42.1 °F 48% 29.92 in 10.0 mi SSW 8.1 mph 18.4 mph N/A   Partly Cloudy
4:53 PM 62.1 °F 44.1 °F 52% 29.91 in 10.0 mi SSW 8.1 mph - N/A   Mostly Cloudy
5:53 PM 60.1 °F 45.0 °F 57% 29.94 in 10.0 mi SW 5.8 mph - N/A   Overcast
6:53 PM 60.1 °F 45.0 °F 57% 29.89 in 10.0 mi Calm Calm - N/A   Mostly Cloudy
7:53 PM 57.0 °F 46.9 °F 69% 29.88 in 10.0 mi ENE 4.6 mph - 0.00 in   Overcast
8:53 PM 55.0 °F 48.9 °F 80% 29.89 in 7.0 mi NNW 8.1 mph - 0.01 in Rain Light Rain
9:07 PM 53.6 °F 50.0 °F 88% 29.91 in 2.5 mi NNE 4.6 mph - 0.06 in Rain Rain
9:14 PM 53.6 °F 50.0 °F 88% 29.90 in 4.0 mi NNE 4.6 mph - 0.07 in Rain Light Rain
9:39 PM 51.8 °F 50.0 °F 94% 29.89 in 5.0 mi NNE 5.8 mph - 0.12 in Rain Rain
9:53 PM 51.8 °F 50.0 °F 94% 29.89 in 5.0 mi NE 4.6 mph - N/A Rain Light Rain
10:53 PM 52.0 °F 50.0 °F 93% 29.83 in 3.0 mi NE 11.5 mph - 0.17 in Rain Rain
11:18 PM 51.8 °F 50.0 °F 94% 29.85 in 2.5 mi NE 10.4 mph - 0.10 in Rain Heavy Rain
11:22 PM 51.8 °F 50.0 °F 94% 29.85 in 3.0 mi NE 11.5 mph - 0.11 in Rain Rain
11:41 PM 51.8 °F 51.8 °F 100% 29.86 in 2.5 mi North 4.6 mph - 0.19 in Rain Heavy Rain
11:53 PM 51.1 °F 51.1 °F 100% 29.82 in 2.5 mi NNE 8.1 mph - 0.26 in Rain Heavy Rain